Zurück zum Katalog

ONEWEB-0649

AktivKommunikationPO
NORAD 55812·PAYLOAD·🇬🇧 United Kingdom

Gestartet Mar 9, 2023 von Cape Canaveral Space Force Station

Loading…

Nächste Überflüge (nächste 24 Stunden)

TLE

AktuellSource: CelesTrak SupGP

Epoche: Sep 14, 2026, 15:30 UTC

1 55812C 23029S   26257.64597639 -.00000363  00000+0 -90674-3 0  2577
2 55812  87.9106 287.1505 0002019  86.9050  26.6086 13.19724384    13

Verfolge ONEWEB-0649 in Echtzeit mit AllMySat

Download on the App Store